Volver al catálogo

FENGYUN 1C DEB

LostPO
NORAD 37411·DEBRIS·🇨🇳 China

Lanzado May 10, 1999 desde Taiyuan Satellite Launch Center

Loading…

Próximos Pases (próximas 24 horas)

TLE

ObsoletoSource: Space-Track

Época: Dec 27, 2021, 11:50 UTC

1 37411U 99025EGD 21361.49338729  .00001870  00000-0  10705-2 0  9990
2 37411  97.8062 252.6541 0274796  16.9819 344.0321 13.93147693666184

Sigue FENGYUN 1C DEB en tiempo real con AllMySat

Download on the App Store